20060218,000010,1215302,33.088800,-124.106800,NaN,14.920,32.990,40.620,  NaN,NaN,0.171, NaN, NaN,16.100, NaN,   NaN,12.10,1016.83,64.10,NaN,342.0,NaN,7.7,NaN,307.6,NaN,15.0,NaN,NaN,0.171,NaN,328.0,NaN,NaN,NaN,2,8.4,000007,   NaN,326.3,     NaN,      NaN,NaN,12.7,NaN, NaN,0.182,NaN,NaN, NaN, NaN
20060218,000040,1215332,33.089800,-124.107500,NaN,14.920,32.990,40.630,  NaN,NaN,0.281, NaN, NaN,16.100, NaN,   NaN,12.10,1016.91,64.50,NaN,348.0,NaN,9.7,NaN,307.1,NaN,18.9,NaN,NaN,0.281,NaN,325.0,NaN,NaN,NaN,2,8.2,000037,   NaN,326.9,     NaN,      NaN,NaN,12.4,NaN, NaN,2.802,NaN,NaN, NaN, NaN
20060218,000110,1215362,33.090800,-124.108300,NaN,14.930,32.990,40.640,  NaN,NaN,0.170, NaN, NaN,16.100, NaN,   NaN,12.20,1017.04,63.40,NaN,349.0,NaN,8.2,NaN,306.6,NaN,15.9,NaN,NaN,0.170,NaN,325.0,NaN,NaN,NaN,2,8.3,000107,   NaN,323.8,     NaN,      NaN,NaN,12.2,NaN, NaN,0.306,NaN,NaN, NaN, NaN
20060218,000140,1215392,33.091800,-124.109200,NaN,14.930,32.990,40.640,  NaN,NaN,0.183, NaN, NaN,16.100, NaN,   NaN,12.20,1016.89,63.50,NaN,345.0,NaN,9.5,NaN,306.1,NaN,18.4,NaN,NaN,0.183,NaN,324.0,NaN,NaN,NaN,2,8.4,000137,   NaN,325.4,     NaN,      NaN,NaN,12.1,NaN, NaN,0.596,NaN,NaN, NaN, NaN
20060218,000210,1215422,33.092700,-124.109800,NaN,14.930,32.990,40.640,  NaN,NaN,0.285, NaN, NaN,16.100, NaN,   NaN,12.10,1016.81,60.40,NaN,349.0,NaN,10.1,NaN,310.3,NaN,19.7,NaN,NaN,0.285,NaN,325.0,NaN,NaN,NaN,2,8.3,000207,   NaN,327.2,     NaN,      NaN,NaN,11.9,NaN, NaN,2.878,NaN,NaN, NaN, NaN
20060218,000240,1215452,33.093700,-124.110700,NaN,14.930,32.990,40.640,  NaN,NaN,0.186, NaN, NaN,16.100, NaN,   NaN,12.10,1016.90,62.00,NaN,341.0,NaN,8.7,NaN,298.5,NaN,16.9,NaN,NaN,0.186,NaN,327.0,NaN,NaN,NaN,2,8.5,000237,   NaN,327.2,     NaN,      NaN,NaN,12.3,NaN, NaN,0.242,NaN,NaN, NaN, NaN
20060218,000310,1215482,33.094700,-124.111300,NaN,14.940,32.990,40.650,  NaN,NaN,0.267, NaN, NaN,16.100, NaN,   NaN,12.10,1016.81,63.20,NaN,343.0,NaN,9.3,NaN,302.3,NaN,18.1,NaN,NaN,0.267,NaN,327.0,NaN,NaN,NaN,2,7.9,000307,   NaN,326.7,     NaN,      NaN,NaN,12.3,NaN, NaN,2.857,NaN,NaN, NaN, NaN
20060218,000340,1215512,33.095700,-124.112200,NaN,14.950,32.990,40.650,  NaN,NaN,0.256, NaN, NaN,16.100, NaN,   NaN,12.10,1016.98,62.30,NaN,343.0,NaN,8.2,NaN,300.0,NaN,16.0,NaN,NaN,0.256,NaN,325.0,NaN,NaN,NaN,2,8.1,000337,   NaN,325.7,     NaN,      NaN,NaN,12.2,NaN, NaN,2.092,NaN,NaN, NaN, NaN
20060218,000410,1215542,33.096500,-124.113000,NaN,14.950,33.000,40.660,  NaN,NaN,0.226, NaN, NaN,16.100, NaN,   NaN,12.10,1016.83,64.10,NaN,339.0,NaN,8.1,NaN,292.3,NaN,15.8,NaN,NaN,0.226,NaN,325.0,NaN,NaN,NaN,2,8.4,000407,   NaN,324.4,     NaN,      NaN,NaN,11.9,NaN, NaN,1.172,NaN,NaN, NaN, NaN
20060218,000440,1215572,33.097500,-124.113700,NaN,14.960,32.990,40.670,  NaN,NaN,0.293, NaN, NaN,16.100, NaN,   NaN,12.10,1017.00,63.50,NaN,338.0,NaN,8.6,NaN,291.9,NaN,16.7,NaN,NaN,0.293,NaN,325.0,NaN,NaN,NaN,2,8.5,000437,   NaN,324.5,     NaN,      NaN,NaN,12.3,NaN, NaN,2.869,NaN,NaN, NaN, NaN
20060218,000510,1215602,33.098500,-124.114500,NaN,14.980,33.000,40.690,  NaN,NaN,0.238, NaN, NaN,16.200, NaN,   NaN,12.10,1016.90,65.00,NaN,338.0,NaN,6.1,NaN,290.5,NaN,11.8,NaN,NaN,0.238,NaN,328.0,NaN,NaN,NaN,2,7.8,000507,   NaN,327.5,     NaN,      NaN,NaN,12.0,NaN, NaN,1.556,NaN,NaN, NaN, NaN
20060218,000540,1215632,33.099300,-124.115200,NaN,14.980,33.000,40.690,  NaN,NaN,0.199, NaN, NaN,16.100, NaN,   NaN,12.10,1016.98,62.80,NaN,342.0,NaN,8.0,NaN,299.3,NaN,15.5,NaN,NaN,0.199,NaN,329.0,NaN,NaN,NaN,2,8.1,000537,   NaN,326.7,     NaN,      NaN,NaN,11.8,NaN, NaN,0.485,NaN,NaN, NaN, NaN
20060218,000610,1215662,33.100300,-124.116000,NaN,14.990,33.000,40.700,  NaN,NaN,0.198, NaN, NaN,16.100, NaN,   NaN,12.10,1016.82,63.10,NaN,342.0,NaN,7.8,NaN,298.5,NaN,15.1,NaN,NaN,0.198,NaN,326.0,NaN,NaN,NaN,2,8.2,000607,   NaN,326.6,     NaN,      NaN,NaN,12.0,NaN, NaN,0.321,NaN,NaN, NaN, NaN
20060218,000640,1215692,33.101300,-124.116700,NaN,14.990,33.000,40.700,  NaN,NaN,0.185, NaN, NaN,16.200, NaN,   NaN,12.10,1016.87,64.00,NaN,342.0,NaN,9.6,NaN,300.5,NaN,18.7,NaN,NaN,0.185,NaN,326.0,NaN,NaN,NaN,2,8.0,000637,   NaN,326.0,     NaN,      NaN,NaN,12.4,NaN, NaN,0.209,NaN,NaN, NaN, NaN
20060218,000710,1215722,33.102200,-124.117500,NaN,14.990,33.000,40.710,  NaN,NaN,0.199, NaN, NaN,16.200, NaN,   NaN,12.10,1016.79,62.60,NaN,339.0,NaN,9.1,NaN,295.3,NaN,17.7,NaN,NaN,0.199,NaN,327.0,NaN,NaN,NaN,2,7.7,000707,   NaN,325.9,     NaN,      NaN,NaN,12.0,NaN, NaN,0.433,NaN,NaN, NaN, NaN
20060218,000740,1215752,33.103200,-124.118200,NaN,14.990,33.000,40.710,  NaN,NaN,3.930, NaN, NaN, NaN, NaN,   NaN,12.10,1016.93,57.50,NaN,337.0,NaN,9.2,NaN,291.7,NaN,17.9,NaN,NaN,3.930,NaN,325.0,NaN,NaN,NaN,2,7.8,000737,   NaN,324.6,     NaN,      NaN,NaN,12.2,NaN, NaN,108.800,NaN,NaN, NaN, NaN
20060218,000810,1215782,33.104000,-124.118800,NaN,14.990,33.000,40.710,  NaN,NaN,0.191, NaN, NaN,16.200, NaN,   NaN,12.10,1016.83,59.10,NaN,343.0,NaN,8.8,NaN,300.8,NaN,17.0,NaN,NaN,0.191,NaN,325.0,NaN,NaN,NaN,2,8.0,000807,   NaN,325.4,     NaN,      NaN,NaN,12.0,NaN, NaN,0.237,NaN,NaN, NaN, NaN
20060218,000840,1215812,33.105000,-124.119700,NaN,14.990,33.000,40.710,  NaN,NaN,0.223, NaN, NaN,16.100, NaN,   NaN,12.10,1016.86,59.00,NaN,347.0,NaN,8.1,NaN,306.9,NaN,15.7,NaN,NaN,0.223,NaN,327.0,NaN,NaN,NaN,2,8.1,000837,   NaN,326.5,     NaN,      NaN,NaN,11.7,NaN, NaN,1.020,NaN,NaN, NaN, NaN
20060218,000910,1215842,33.106000,-124.120300,NaN,14.990,33.000,40.710,  NaN,NaN,0.193, NaN, NaN,16.200, NaN,   NaN,12.10,1017.13,59.70,NaN,345.0,NaN,8.4,NaN,302.7,NaN,16.4,NaN,NaN,0.193,NaN,327.0,NaN,NaN,NaN,2,8.3,000907,   NaN,325.4,     NaN,      NaN,NaN,12.2,NaN, NaN,0.502,NaN,NaN, NaN, NaN
20060218,000940,1215872,33.107000,-124.121200,NaN,14.990,33.010,40.710,  NaN,NaN,0.190, NaN, NaN,16.200, NaN,   NaN,12.10,1016.81,59.40,NaN,343.0,NaN,9.2,NaN,301.8,NaN,17.8,NaN,NaN,0.190,NaN,327.0,NaN,NaN,NaN,2,8.2,000937,   NaN,326.4,     NaN,      NaN,NaN,12.3,NaN, NaN,0.233,NaN,NaN, NaN, NaN
20060218,001010,1215902,33.108000,-124.121800,NaN,14.990,33.010,40.710,  NaN,NaN,0.189, NaN, NaN,16.200, NaN,   NaN,12.20,1016.86,62.70,NaN,347.0,NaN,9.7,NaN,307.7,NaN,18.8,NaN,NaN,0.189,NaN,328.0,NaN,NaN,NaN,2,8.0,001007,   NaN,326.2,     NaN,      NaN,NaN,12.5,NaN, NaN,0.416,NaN,NaN, NaN, NaN
20060218,001040,1215932,33.109000,-124.122700,NaN,14.990,33.010,40.710,  NaN,NaN,0.215, NaN, NaN,16.200, NaN,   NaN,12.10,1016.79,60.30,NaN,348.0,NaN,9.6,NaN,307.7,NaN,18.7,NaN,NaN,0.215,NaN,326.0,NaN,NaN,NaN,2,8.2,001037,   NaN,324.8,     NaN,      NaN,NaN,12.2,NaN, NaN,0.813,NaN,NaN, NaN, NaN
20060218,001110,1215962,33.109800,-124.123300,NaN,14.990,33.000,40.700,  NaN,NaN,0.193, NaN, NaN,16.200, NaN,   NaN,12.10,1016.77,59.80,NaN,351.0,NaN,8.1,NaN,312.4,NaN,15.7,NaN,NaN,0.193,NaN,327.0,NaN,NaN,NaN,2,8.2,001107,   NaN,326.1,     NaN,      NaN,NaN,12.2,NaN, NaN,0.283,NaN,NaN, NaN, NaN
20060218,001140,1215992,33.110800,-124.124200,NaN,14.990,33.000,40.700,  NaN,NaN,0.204, NaN, NaN,16.200, NaN,   NaN,12.10,1017.02,59.70,NaN,341.0,NaN,9.6,NaN,299.0,NaN,18.6,NaN,NaN,0.204,NaN,326.0,NaN,NaN,NaN,2,8.5,001137,   NaN,326.5,     NaN,      NaN,NaN,12.5,NaN, NaN,0.827,NaN,NaN, NaN, NaN
20060218,001210,1216022,33.111800,-124.124800,NaN,14.990,33.000,40.700,  NaN,NaN,0.219, NaN, NaN,16.100, NaN,   NaN,12.20,1016.73,62.50,NaN,343.0,NaN,6.8,NaN,298.8,NaN,13.3,NaN,NaN,0.219,NaN,327.0,NaN,NaN,NaN,2,8.2,001207,   NaN,325.8,     NaN,      NaN,NaN,11.9,NaN, NaN,0.820,NaN,NaN, NaN, NaN
20060218,001240,1216052,33.112800,-124.125700,NaN,14.990,33.000,40.700,  NaN,NaN,0.318, NaN, NaN,16.200, NaN,   NaN,12.30,1016.93,64.90,NaN,338.0,NaN,10.6,NaN,294.9,NaN,20.7,NaN,NaN,0.318,NaN,329.0,NaN,NaN,NaN,2,8.1,001237,   NaN,325.3,     NaN,      NaN,NaN,12.6,NaN, NaN,3.723,NaN,NaN, NaN, NaN
20060218,001310,1216082,33.113800,-124.126300,NaN,14.990,33.000,40.710,  NaN,NaN,0.217, NaN, NaN,16.200, NaN,   NaN,12.30,1016.91,58.60,NaN,337.0,NaN,11.4,NaN,294.1,NaN,22.2,NaN,NaN,0.217,NaN,327.0,NaN,NaN,NaN,2,8.5,001307,   NaN,325.8,     NaN,      NaN,NaN,11.8,NaN, NaN,1.048,NaN,NaN, NaN, NaN
20060218,001340,1216112,33.114800,-124.127200,NaN,14.980,33.000,40.700,  NaN,NaN,0.808, NaN, NaN,16.000, NaN,   NaN,12.20,1016.93,58.20,NaN,342.0,NaN,10.4,NaN,300.9,NaN,20.3,NaN,NaN,0.808,NaN,327.0,NaN,NaN,NaN,2,8.5,001337,   NaN,326.1,     NaN,      NaN,NaN,11.9,NaN, NaN,14.840,NaN,NaN, NaN, NaN
20060218,001410,1216142,33.115800,-124.127800,NaN,14.970,33.000,40.690,  NaN,NaN,0.263, NaN, NaN,16.200, NaN,   NaN,12.20,1016.91,57.70,NaN,338.0,NaN,10.6,NaN,295.7,NaN,20.6,NaN,NaN,0.263,NaN,330.0,NaN,NaN,NaN,2,8.7,001407,   NaN,326.3,     NaN,      NaN,NaN,12.3,NaN, NaN,2.053,NaN,NaN, NaN, NaN
20060218,001440,1216172,33.116800,-124.128500,NaN,14.950,33.000,40.670,  NaN,NaN,0.451, NaN, NaN,16.200, NaN,   NaN,12.20,1016.79,61.60,NaN,346.0,NaN,8.1,NaN,303.8,NaN,15.7,NaN,NaN,0.451,NaN,326.0,NaN,NaN,NaN,2,8.1,001437,   NaN,325.1,     NaN,      NaN,NaN,11.8,NaN, NaN,6.931,NaN,NaN, NaN, NaN
20060218,001510,1216202,33.117800,-124.129300,NaN,14.930,33.010,40.660,  NaN,NaN,0.198, NaN, NaN,16.200, NaN,   NaN,12.20,1016.90,61.80,NaN,348.0,NaN,10.2,NaN,307.6,NaN,19.8,NaN,NaN,0.198,NaN,324.0,NaN,NaN,NaN,2,8.6,001507,   NaN,324.8,     NaN,      NaN,NaN,12.1,NaN, NaN,0.379,NaN,NaN, NaN, NaN
20060218,001540,1216232,33.118800,-124.130200,NaN,14.900,33.000,40.620,  NaN,NaN,0.202, NaN, NaN,16.100, NaN,   NaN,12.20,1017.03,61.70,NaN,342.0,NaN,8.6,NaN,300.0,NaN,16.7,NaN,NaN,0.202,NaN,326.0,NaN,NaN,NaN,2,8.5,001537,   NaN,326.7,     NaN,      NaN,NaN,12.4,NaN, NaN,0.456,NaN,NaN, NaN, NaN
20060218,001610,1216262,33.119800,-124.131000,NaN,14.880,33.000,40.600,  NaN,NaN,0.204, NaN, NaN,16.100, NaN,   NaN,12.30,1017.06,65.10,NaN,341.0,NaN,8.3,NaN,298.0,NaN,16.2,NaN,NaN,0.204,NaN,326.0,NaN,NaN,NaN,2,8.6,001607,   NaN,326.9,     NaN,      NaN,NaN,12.0,NaN, NaN,0.734,NaN,NaN, NaN, NaN
20060218,001640,1216292,33.120800,-124.131700,NaN,14.880,32.990,40.590,  NaN,NaN,0.212, NaN, NaN,16.100, NaN,   NaN,12.20,1016.90,62.30,NaN,344.0,NaN,8.8,NaN,302.1,NaN,17.1,NaN,NaN,0.212,NaN,327.0,NaN,NaN,NaN,2,8.5,001637,   NaN,326.2,     NaN,      NaN,NaN,12.2,NaN, NaN,0.326,NaN,NaN, NaN, NaN
20060218,001710,1216322,33.121800,-124.132500,NaN,14.870,32.990,40.580,  NaN,NaN,0.207, NaN, NaN,16.100, NaN,   NaN,12.20,1017.04,62.50,NaN,340.0,NaN,8.8,NaN,295.8,NaN,17.2,NaN,NaN,0.207,NaN,327.0,NaN,NaN,NaN,2,8.8,001707,   NaN,325.9,     NaN,      NaN,NaN,12.0,NaN, NaN,0.181,NaN,NaN, NaN, NaN
20060218,001740,1216352,33.122800,-124.133300,NaN,14.860,32.990,40.570,  NaN,NaN,0.216, NaN, NaN,16.100, NaN,   NaN,12.20,1016.89,62.30,NaN,339.0,NaN,8.1,NaN,293.5,NaN,15.7,NaN,NaN,0.216,NaN,325.0,NaN,NaN,NaN,2,8.5,001737,   NaN,325.8,     NaN,      NaN,NaN,12.5,NaN, NaN,0.195,NaN,NaN, NaN, NaN
20060218,001810,1216382,33.123800,-124.134200,NaN,14.860,32.990,40.570,  NaN,NaN,0.228, NaN, NaN,16.100, NaN,   NaN,12.20,1017.05,61.10,NaN,342.0,NaN,8.1,NaN,299.7,NaN,15.8,NaN,NaN,0.228,NaN,327.0,NaN,NaN,NaN,2,8.8,001807,   NaN,327.6,     NaN,      NaN,NaN,12.0,NaN, NaN,0.713,NaN,NaN, NaN, NaN
20060218,001840,1216412,33.124800,-124.134800,NaN,14.850,32.990,40.560,  NaN,NaN,0.205, NaN, NaN,16.100, NaN,   NaN,12.20,1016.91,60.40,NaN,347.0,NaN,9.7,NaN,309.7,NaN,18.9,NaN,NaN,0.205,NaN,330.0,NaN,NaN,NaN,2,8.8,001837,   NaN,328.6,     NaN,      NaN,NaN,12.3,NaN, NaN,0.171,NaN,NaN, NaN, NaN
20060218,001910,1216442,33.125800,-124.135700,NaN,14.840,32.990,40.550,  NaN,NaN,0.236, NaN, NaN,16.100, NaN,   NaN,12.30,1016.77,61.70,NaN,344.0,NaN,9.4,NaN,305.9,NaN,18.2,NaN,NaN,0.236,NaN,331.0,NaN,NaN,NaN,2,8.5,001907,   NaN,329.4,     NaN,      NaN,NaN,12.1,NaN, NaN,1.307,NaN,NaN, NaN, NaN
20060218,001940,1216472,33.126800,-124.136300,NaN,14.830,32.990,40.550,  NaN,NaN,0.212, NaN, NaN,16.100, NaN,   NaN,12.50,1016.78,63.40,NaN,341.0,NaN,9.9,NaN,302.8,NaN,19.3,NaN,NaN,0.212,NaN,331.0,NaN,NaN,NaN,2,8.2,001937,   NaN,330.0,     NaN,      NaN,NaN,12.4,NaN, NaN,1.148,NaN,NaN, NaN, NaN
20060218,002010,1216502,33.128000,-124.137000,NaN,14.830,32.990,40.540,  NaN,NaN,0.241, NaN, NaN,16.100, NaN,   NaN,12.20,1017.02,59.70,NaN,330.0,NaN,10.9,NaN,288.8,NaN,21.1,NaN,NaN,0.241,NaN,331.0,NaN,NaN,NaN,2,8.3,002007,   NaN,330.2,     NaN,      NaN,NaN,12.1,NaN, NaN,1.884,NaN,NaN, NaN, NaN
20060218,002040,1216532,33.129000,-124.137700,NaN,14.820,32.990,40.530,  NaN,NaN,2.308, NaN, NaN,16.000, NaN,   NaN,12.30,1016.88,64.00,NaN,332.0,NaN,10.8,NaN,292.0,NaN,21.0,NaN,NaN,2.308,NaN,333.0,NaN,NaN,NaN,2,8.2,002037,   NaN,330.2,     NaN,      NaN,NaN,11.9,NaN, NaN,54.960,NaN,NaN, NaN, NaN
20060218,002110,1216562,33.130000,-124.138300,NaN,14.820,32.990,40.530,  NaN,NaN,0.267, NaN, NaN,16.000, NaN,   NaN,12.30,1016.77,63.00,NaN,342.0,NaN,11.5,NaN,304.2,NaN,22.3,NaN,NaN,0.267,NaN,331.0,NaN,NaN,NaN,2,8.3,002107,   NaN,328.8,     NaN,      NaN,NaN,12.3,NaN, NaN,2.225,NaN,NaN, NaN, NaN
20060218,002140,1216592,33.131000,-124.139000,NaN,14.820,32.990,40.530,  NaN,NaN,0.194, NaN, NaN,16.100, NaN,   NaN,12.20,1016.87,59.90,NaN,341.0,NaN,10.1,NaN,303.6,NaN,19.6,NaN,NaN,0.194,NaN,332.0,NaN,NaN,NaN,2,8.1,002137,   NaN,330.8,     NaN,      NaN,NaN,12.4,NaN, NaN,0.399,NaN,NaN, NaN, NaN
20060218,002210,1216622,33.132000,-124.139700,NaN,14.820,32.990,40.530,  NaN,NaN,2.050, NaN, NaN,16.000, NaN,   NaN,12.20,1017.03,60.50,NaN,341.0,NaN,10.1,NaN,302.7,NaN,19.7,NaN,NaN,2.050,NaN,332.0,NaN,NaN,NaN,2,8.3,002207,   NaN,329.1,     NaN,      NaN,NaN,11.8,NaN, NaN,56.660,NaN,NaN, NaN, NaN
20060218,002240,1216652,33.133000,-124.140300,NaN,14.830,32.990,40.540,  NaN,NaN,0.207, NaN, NaN,16.100, NaN,   NaN,12.20,1016.93,61.60,NaN,343.0,NaN,10.7,NaN,304.8,NaN,20.8,NaN,NaN,0.207,NaN,329.0,NaN,NaN,NaN,2,8.5,002237,   NaN,329.0,     NaN,      NaN,NaN,12.5,NaN, NaN,0.568,NaN,NaN, NaN, NaN
20060218,002310,1216682,33.134000,-124.141200,NaN,14.830,32.990,40.540,  NaN,NaN,0.200, NaN, NaN,16.100, NaN,   NaN,12.20,1016.83,58.90,NaN,349.0,NaN,10.0,NaN,315.0,NaN,19.4,NaN,NaN,0.200,NaN,329.0,NaN,NaN,NaN,2,8.3,002307,   NaN,330.5,     NaN,      NaN,NaN,12.3,NaN, NaN,0.370,NaN,NaN, NaN, NaN
20060218,002340,1216712,33.135000,-124.141800,NaN,14.830,32.990,40.530,  NaN,NaN,0.207, NaN, NaN,16.100, NaN,   NaN,12.20,1016.95,59.50,NaN,342.0,NaN,9.6,NaN,304.3,NaN,18.6,NaN,NaN,0.207,NaN,330.0,NaN,NaN,NaN,2,8.6,002337,   NaN,330.7,     NaN,      NaN,NaN,12.7,NaN, NaN,0.217,NaN,NaN, NaN, NaN
20060218,002410,1216742,33.136200,-124.142500,NaN,14.830,32.980,40.540,  NaN,NaN,0.236, NaN, NaN,16.000, NaN,   NaN,12.20,1016.78,59.00,NaN,343.0,NaN,8.5,NaN,303.9,NaN,16.6,NaN,NaN,0.236,NaN,331.0,NaN,NaN,NaN,2,8.4,002407,   NaN,329.5,     NaN,      NaN,NaN,12.4,NaN, NaN,0.748,NaN,NaN, NaN, NaN
20060218,002440,1216772,33.137200,-124.143200,NaN,14.830,32.980,40.540,  NaN,NaN,0.234, NaN, NaN,16.100, NaN,   NaN,12.20,1016.71,57.60,NaN,341.0,NaN,8.9,NaN,301.0,NaN,17.3,NaN,NaN,0.234,NaN,330.0,NaN,NaN,NaN,2,8.3,002437,   NaN,329.3,     NaN,      NaN,NaN,12.5,NaN, NaN,0.918,NaN,NaN, NaN, NaN
20060218,002510,1216802,33.138200,-124.144000,NaN,14.830,32.980,40.540,  NaN,NaN,0.214, NaN, NaN,16.100, NaN,   NaN,12.20,1016.71,57.10,NaN,345.0,NaN,10.8,NaN,308.9,NaN,21.0,NaN,NaN,0.214,NaN,330.0,NaN,NaN,NaN,2,8.5,002507,   NaN,329.6,     NaN,      NaN,NaN,12.4,NaN, NaN,0.328,NaN,NaN, NaN, NaN
20060218,002540,1216832,33.139200,-124.144700,NaN,14.840,32.980,40.540,  NaN,NaN,0.195, NaN, NaN,16.100, NaN,   NaN,12.30,1016.83,61.20,NaN,347.0,NaN,10.9,NaN,312.0,NaN,21.2,NaN,NaN,0.195,NaN,329.0,NaN,NaN,NaN,2,8.5,002537,   NaN,330.1,     NaN,      NaN,NaN,12.4,NaN, NaN,0.174,NaN,NaN, NaN, NaN
20060218,002610,1216862,33.140200,-124.145300,NaN,14.840,32.980,40.540,  NaN,NaN,0.207, NaN, NaN,16.100, NaN,   NaN,12.30,1016.87,59.40,NaN,335.0,NaN,10.3,NaN,294.0,NaN,19.9,NaN,NaN,0.207,NaN,330.0,NaN,NaN,NaN,2,8.6,002607,   NaN,329.9,     NaN,      NaN,NaN,12.6,NaN, NaN,0.316,NaN,NaN, NaN, NaN
20060218,002640,1216892,33.141300,-124.146000,NaN,14.840,32.980,40.540,  NaN,NaN,0.284, NaN, NaN,16.100, NaN,   NaN,12.30,1016.75,64.00,NaN,338.0,NaN,7.9,NaN,294.3,NaN,15.3,NaN,NaN,0.284,NaN,330.0,NaN,NaN,NaN,2,8.4,002637,   NaN,327.8,     NaN,      NaN,NaN,12.6,NaN, NaN,2.758,NaN,NaN, NaN, NaN
20060218,002710,1216922,33.142300,-124.146800,NaN,14.840,32.980,40.540,  NaN,NaN,0.211, NaN, NaN,16.100, NaN,   NaN,12.30,1016.80,59.40,NaN,341.0,NaN,9.1,NaN,302.1,NaN,17.7,NaN,NaN,0.211,NaN,330.0,NaN,NaN,NaN,2,8.7,002707,   NaN,330.1,     NaN,      NaN,NaN,12.7,NaN, NaN,0.184,NaN,NaN, NaN, NaN
20060218,002740,1216952,33.143300,-124.147500,NaN,14.840,32.980,40.540,  NaN,NaN,0.370, NaN, NaN,16.100, NaN,   NaN,12.30,1016.83,57.70,NaN,337.0,NaN,9.0,NaN,298.3,NaN,17.5,NaN,NaN,0.370,NaN,332.0,NaN,NaN,NaN,2,8.7,002737,   NaN,332.3,     NaN,      NaN,NaN,12.5,NaN, NaN,5.201,NaN,NaN, NaN, NaN
20060218,002810,1216982,33.144500,-124.148200,NaN,14.840,32.980,40.550,  NaN,NaN,0.302, NaN, NaN,16.100, NaN,   NaN,12.50,1016.85,61.80,NaN,337.0,NaN,10.1,NaN,297.5,NaN,19.7,NaN,NaN,0.302,NaN,331.0,NaN,NaN,NaN,2,8.8,002807,   NaN,330.6,     NaN,      NaN,NaN,12.3,NaN, NaN,2.645,NaN,NaN, NaN, NaN
20060218,002840,1217012,33.145500,-124.148800,NaN,14.850,32.980,40.550,  NaN,NaN,0.199, NaN, NaN,16.100, NaN,   NaN,12.30,1016.68,58.20,NaN,342.0,NaN,11.2,NaN,303.4,NaN,21.8,NaN,NaN,0.199,NaN,328.0,NaN,NaN,NaN,2,8.7,002837,   NaN,328.6,     NaN,      NaN,NaN,12.0,NaN, NaN,0.425,NaN,NaN, NaN, NaN
20060218,002910,1217042,33.146500,-124.149700,NaN,14.840,32.980,40.550,  NaN,NaN,0.218, NaN, NaN,16.100, NaN,   NaN,12.30,1016.72,58.40,NaN,341.0,NaN,10.8,NaN,303.1,NaN,21.1,NaN,NaN,0.218,NaN,329.0,NaN,NaN,NaN,2,8.4,002907,   NaN,329.8,     NaN,      NaN,NaN,12.6,NaN, NaN,0.869,NaN,NaN, NaN, NaN
20060218,002940,1217072,33.147500,-124.150300,NaN,14.850,32.980,40.550,  NaN,NaN,0.216, NaN, NaN,16.100, NaN,   NaN,12.20,1016.94,57.40,NaN,337.0,NaN,11.6,NaN,299.4,NaN,22.5,NaN,NaN,0.216,NaN,331.0,NaN,NaN,NaN,2,8.6,002937,   NaN,330.7,     NaN,      NaN,NaN,12.7,NaN, NaN,0.524,NaN,NaN, NaN, NaN
20060218,003010,1217102,33.148500,-124.151000,NaN,14.840,32.980,40.550,  NaN,NaN,0.416, NaN, NaN,16.100, NaN,   NaN,12.20,1016.71,57.90,NaN,340.0,NaN,8.9,NaN,300.1,NaN,17.4,NaN,NaN,0.416,NaN,330.0,NaN,NaN,NaN,2,8.4,003007,   NaN,329.9,     NaN,      NaN,NaN,11.9,NaN, NaN,6.351,NaN,NaN, NaN, NaN
20060218,003040,1217132,33.149500,-124.151700,NaN,14.850,32.980,40.550,  NaN,NaN,0.220, NaN, NaN,16.100, NaN,   NaN,12.20,1016.70,60.80,NaN,340.0,NaN,11.3,NaN,302.2,NaN,21.9,NaN,NaN,0.220,NaN,330.0,NaN,NaN,NaN,2,8.5,003037,   NaN,329.7,     NaN,      NaN,NaN,12.0,NaN, NaN,0.340,NaN,NaN, NaN, NaN
20060218,003110,1217162,33.150700,-124.152500,NaN,14.850,32.980,40.560,  NaN,NaN,0.216, NaN, NaN,16.100, NaN,   NaN,12.30,1016.71,63.20,NaN,339.0,NaN,10.4,NaN,299.9,NaN,20.2,NaN,NaN,0.216,NaN,329.0,NaN,NaN,NaN,2,8.6,003107,   NaN,330.0,     NaN,      NaN,NaN,12.3,NaN, NaN,0.255,NaN,NaN, NaN, NaN
20060218,003140,1217192,33.151700,-124.153200,NaN,14.850,32.980,40.550,  NaN,NaN,0.224, NaN, NaN,16.100, NaN,   NaN,12.50,1016.97,61.70,NaN,333.0,NaN,12.9,NaN,294.9,NaN,25.0,NaN,NaN,0.224,NaN,330.0,NaN,NaN,NaN,2,9.0,003137,   NaN,331.1,     NaN,      NaN,NaN,12.1,NaN, NaN,0.603,NaN,NaN, NaN, NaN
20060218,003210,1217222,33.152700,-124.153800,NaN,14.850,32.980,40.550,  NaN,NaN,0.336, NaN, NaN,16.100, NaN,   NaN,12.30,1016.80,57.50,NaN,334.0,NaN,11.1,NaN,295.1,NaN,21.6,NaN,NaN,0.336,NaN,333.0,NaN,NaN,NaN,2,8.8,003207,   NaN,330.9,     NaN,      NaN,NaN,12.1,NaN, NaN,3.899,NaN,NaN, NaN, NaN
20060218,003240,1217252,33.153700,-124.154500,NaN,14.850,32.980,40.550,  NaN,NaN,0.287, NaN, NaN,16.100, NaN,   NaN,12.50,1016.84,60.40,NaN,337.0,NaN,11.0,NaN,297.5,NaN,21.4,NaN,NaN,0.287,NaN,329.0,NaN,NaN,NaN,2,7.9,003237,   NaN,328.9,     NaN,      NaN,NaN,12.3,NaN, NaN,3.273,NaN,NaN, NaN, NaN
20060218,003310,1217282,33.154700,-124.155200,NaN,14.850,32.980,40.550,  NaN,NaN,0.203, NaN, NaN,16.100, NaN,   NaN,12.30,1016.87,56.10,NaN,342.0,NaN,12.0,NaN,303.5,NaN,23.4,NaN,NaN,0.203,NaN,327.0,NaN,NaN,NaN,2,8.0,003307,   NaN,327.9,     NaN,      NaN,NaN,12.3,NaN, NaN,0.509,NaN,NaN, NaN, NaN
20060218,003340,1217312,33.155700,-124.155800,NaN,14.850,32.980,40.560,  NaN,NaN,0.227, NaN, NaN,16.100, NaN,   NaN,12.30,1016.68,56.50,NaN,344.0,NaN,10.9,NaN,305.6,NaN,21.1,NaN,NaN,0.227,NaN,326.0,NaN,NaN,NaN,2,7.9,003337,   NaN,327.7,     NaN,      NaN,NaN,12.0,NaN, NaN,1.455,NaN,NaN, NaN, NaN
20060218,003410,1217342,33.156500,-124.156700,NaN,14.850,32.980,40.560,  NaN,NaN,0.203, NaN, NaN,16.100, NaN,   NaN,12.30,1016.81,56.20,NaN,337.0,NaN,9.6,NaN,295.9,NaN,18.6,NaN,NaN,0.203,NaN,327.0,NaN,NaN,NaN,2,8.4,003407,   NaN,328.8,     NaN,      NaN,NaN,12.4,NaN, NaN,0.472,NaN,NaN, NaN, NaN
20060218,003440,1217372,33.157500,-124.157300,NaN,14.850,32.980,40.560,  NaN,NaN,0.657, NaN, NaN,16.000, NaN,   NaN,12.30,1016.49,58.50,NaN,346.0,NaN,7.9,NaN,306.1,NaN,15.4,NaN,NaN,0.657,NaN,327.0,NaN,NaN,NaN,2,8.2,003437,   NaN,327.7,     NaN,      NaN,NaN,11.7,NaN, NaN,10.600,NaN,NaN, NaN, NaN
20060218,003510,1217402,33.158500,-124.158200,NaN,14.860,32.980,40.560,  NaN,NaN,0.348, NaN, NaN,16.100, NaN,   NaN,12.50,1016.67,58.60,NaN,341.0,NaN,12.2,NaN,302.0,NaN,23.7,NaN,NaN,0.348,NaN,327.0,NaN,NaN,NaN,2,8.3,003507,   NaN,327.9,     NaN,      NaN,NaN,11.8,NaN, NaN,3.805,NaN,NaN, NaN, NaN
20060218,003540,1217432,33.159500,-124.158800,NaN,14.860,32.980,40.560,  NaN,NaN,0.438, NaN, NaN,16.100, NaN,   NaN,12.50,1016.72,57.90,NaN,341.0,NaN,11.8,NaN,302.6,NaN,22.9,NaN,NaN,0.438,NaN,328.0,NaN,NaN,NaN,2,8.7,003537,   NaN,328.5,     NaN,      NaN,NaN,12.0,NaN, NaN,6.587,NaN,NaN, NaN, NaN
20060218,003610,1217462,33.160500,-124.159700,NaN,14.860,32.980,40.560,  NaN,NaN,0.290, NaN, NaN,16.100, NaN,   NaN,12.50,1016.67,58.10,NaN,339.0,NaN,9.9,NaN,298.4,NaN,19.3,NaN,NaN,0.290,NaN,328.0,NaN,NaN,NaN,2,8.5,003607,   NaN,328.2,     NaN,      NaN,NaN,12.4,NaN, NaN,2.932,NaN,NaN, NaN, NaN
20060218,003640,1217492,33.161700,-124.160300,NaN,14.860,32.980,40.570,  NaN,NaN,0.285, NaN, NaN,16.100, NaN,   NaN,12.50,1016.76,59.30,NaN,342.0,NaN,10.7,NaN,301.8,NaN,20.7,NaN,NaN,0.285,NaN,328.0,NaN,NaN,NaN,2,8.8,003637,   NaN,327.5,     NaN,      NaN,NaN,11.8,NaN, NaN,3.632,NaN,NaN, NaN, NaN
20060218,003710,1217522,33.162700,-124.161200,NaN,14.860,32.980,40.570,  NaN,NaN,0.383, NaN, NaN,16.100, NaN,   NaN,12.50,1016.77,57.70,NaN,335.0,NaN,11.5,NaN,293.7,NaN,22.4,NaN,NaN,0.383,NaN,329.0,NaN,NaN,NaN,2,8.4,003707,   NaN,327.9,     NaN,      NaN,NaN,11.9,NaN, NaN,5.665,NaN,NaN, NaN, NaN
20060218,003740,1217552,33.163500,-124.161800,NaN,14.870,32.980,40.570,  NaN,NaN,0.288, NaN, NaN,16.100, NaN,   NaN,12.50,1016.73,58.10,NaN,340.0,NaN,11.3,NaN,300.6,NaN,21.9,NaN,NaN,0.288,NaN,328.0,NaN,NaN,NaN,2,8.2,003737,   NaN,327.9,     NaN,      NaN,NaN,11.8,NaN, NaN,3.038,NaN,NaN, NaN, NaN
20060218,003810,1217582,33.164500,-124.162700,NaN,14.870,32.980,40.570,  NaN,NaN,0.263, NaN, NaN,16.100, NaN,   NaN,12.50,1016.72,59.70,NaN,346.0,NaN,12.3,NaN,307.6,NaN,23.8,NaN,NaN,0.263,NaN,327.0,NaN,NaN,NaN,2,8.5,003807,   NaN,326.7,     NaN,      NaN,NaN,12.4,NaN, NaN,3.084,NaN,NaN, NaN, NaN
20060218,003840,1217612,33.165700,-124.163500,NaN,14.870,32.980,40.570,  NaN,NaN,0.231, NaN, NaN,16.200, NaN,   NaN,12.50,1016.82,59.40,NaN,349.0,NaN,10.8,NaN,312.9,NaN,20.9,NaN,NaN,0.231,NaN,327.0,NaN,NaN,NaN,2,8.6,003837,   NaN,328.2,     NaN,      NaN,NaN,12.6,NaN, NaN,1.099,NaN,NaN, NaN, NaN
20060218,003910,1217642,33.166700,-124.164200,NaN,14.870,32.980,40.570,  NaN,NaN,0.205, NaN, NaN,16.100, NaN,   NaN,12.50,1016.61,60.00,NaN,343.0,NaN,12.5,NaN,306.5,NaN,24.3,NaN,NaN,0.205,NaN,329.0,NaN,NaN,NaN,2,8.8,003907,   NaN,329.4,     NaN,      NaN,NaN,12.2,NaN, NaN,0.305,NaN,NaN, NaN, NaN
20060218,003940,1217672,33.167700,-124.165000,NaN,14.880,32.980,40.580,  NaN,NaN,0.208, NaN, NaN,16.100, NaN,   NaN,12.60,1016.58,60.30,NaN,348.0,NaN,10.0,NaN,310.7,NaN,19.4,NaN,NaN,0.208,NaN,328.0,NaN,NaN,NaN,2,8.7,003937,   NaN,327.8,     NaN,      NaN,NaN,12.6,NaN, NaN,0.235,NaN,NaN, NaN, NaN